Weather History for Atlantic City, NJ

Change the Weather History Date:

Tuesday, October 15, 2013

  Actual Average Record
Temperature  
Mean Temperature 57 °F 56 °F  
Max Temperature 70 °F 67 °F 86 °F (1985)
Min Temperature 44 °F 46 °F 30 °F (1979)
Degree Days  
Heating Degree Days 8 9  
Month to date heating degree days 49 109  
Since 1 July heating degree days 151 171  
Cooling Degree Days 0 1  
Month to date cooling degree days 35 16  
Year to date cooling degree days 1087 1050  
Growing Degree Days 7 (Base 50)    
Moisture  
Dew Point 48 °F    
Average Humidity 70    
Maximum Humidity 100    
Minimum Humidity 39    
Precipitation  
Precipitation 0.00 in 0.11 in 1.06 in (2009)
Month to date precipitation 4.14 1.65  
Year to date precipitation 36.74 33.02  
Snow  
Snow 0.00 in 0.00 in 0.00 in (1903)
Month to date snowfall 0.0 0.0  
Since 1 July snowfall 0.0 0.0  
Since 1 September snowfall 0.0 0.0  
Snow Depth 0.00 in    
Sea Level Pressure  
Sea Level Pressure 30.18 in    
Wind  
Wind Speed 5 mph (NE)    
Max Wind Speed 16 mph    
Max Gust Speed 20 mph    
Visibility 10 miles    
Events      
T = Trace of Precipitation, MM = Missing Value Source: NWS Daily Summary

Daily Weather History Graph

Daily Weather History Graph

Search for Another Location

Airport:

Trip Planner

Search our weather history database for the weather conditions in past years. The results will help you decide how hot, cold, wet, or windy it might be!

Date:

Astronomy

Oct. 15, 2013 Rise Set
Actual Time 7:08 AM EDT 6:18 PM EDT
Civil Twilight 6:41 AM EDT 6:45 PM EDT
Nautical Twilight 6:10 AM EDT 7:17 PM EDT
Astronomical Twilight 5:39 AM EDT 7:48 PM EDT
Moon 4:21 PM EDT (10/15) 3:29 AM EDT (10/15)
Length of Visible Light 12h 04m
Length of Day
11h 10m
Waxing Gibbous, 87% of the Moon is Illuminated
Oct 15
Waxing Gibbous
Oct 18
Full
Oct 26
Last Quarter
Nov 3
New
Nov 10
First Quarter

Hourly Weather History & Observations

Time (EDT) Temp. Windchill Dew Point Humidity Pressure Visibility Wind Dir Wind Speed Gust Speed Precip Events Conditions
12:54 AM 48.0 °F - 46.0 °F 93% 30.25 in 10.0 mi NNW 4.6 mph - N/A   Clear
1:54 AM 46.9 °F - 46.0 °F 97% 30.23 in 10.0 mi Calm Calm - N/A   Clear
2:54 AM 46.9 °F - 46.0 °F 97% 30.22 in 10.0 mi Calm Calm - N/A   Clear
3:54 AM 46.0 °F 43.9 °F 46.0 °F 100% 30.22 in 10.0 mi NNW 4.6 mph - N/A   Clear
4:54 AM 45.0 °F - 45.0 °F 100% 30.22 in 10.0 mi Calm Calm - N/A   Clear
5:54 AM 45.0 °F - 45.0 °F 100% 30.22 in 10.0 mi Calm Calm - N/A   Clear
6:54 AM 45.0 °F 43.5 °F 45.0 °F 100% 30.22 in 10.0 mi NNW 3.5 mph - N/A   Clear
7:54 AM 46.9 °F - 46.0 °F 97% 30.21 in 10.0 mi Calm Calm - N/A   Clear
8:54 AM 55.0 °F - 53.1 °F 93% 30.22 in 10.0 mi NE 9.2 mph - N/A   Clear
9:54 AM 60.1 °F - 51.1 °F 72% 30.22 in 10.0 mi NE 9.2 mph - N/A   Clear
10:54 AM 66.0 °F - 46.9 °F 50% 30.23 in 10.0 mi ENE 10.4 mph - N/A   Mostly Cloudy
11:54 AM 66.0 °F - 46.9 °F 50% 30.21 in 10.0 mi ENE 8.1 mph - N/A   Mostly Cloudy
12:54 PM 69.1 °F - 45.0 °F 42% 30.19 in 10.0 mi ENE 8.1 mph - N/A   Mostly Cloudy
1:54 PM 68.0 °F - 43.0 °F 40% 30.17 in 10.0 mi ENE 10.4 mph 19.6 mph N/A   Clear
2:54 PM 68.0 °F - 45.0 °F 43% 30.16 in 10.0 mi East 10.4 mph - N/A   Clear
3:54 PM 66.0 °F - 46.0 °F 48% 30.14 in 10.0 mi East 10.4 mph - N/A   Overcast
4:54 PM 64.0 °F - 48.9 °F 58% 30.14 in 10.0 mi East 11.5 mph - N/A   Clear
5:54 PM 61.0 °F - 51.1 °F 70% 30.14 in 10.0 mi ENE 9.2 mph - N/A   Clear
6:54 PM 57.0 °F - 52.0 °F 83% 30.15 in 10.0 mi NE 3.5 mph - N/A   Partly Cloudy
7:54 PM 57.9 °F - 53.1 °F 84% 30.16 in 10.0 mi Variable 4.6 mph - N/A   Mostly Cloudy
8:54 PM 55.0 °F - 52.0 °F 89% 30.15 in 10.0 mi Calm Calm - N/A   Clear
9:54 PM 55.0 °F - 53.1 °F 93% 30.14 in 10.0 mi ENE 4.6 mph - N/A   Mostly Cloudy
10:51 PM 57.2 °F - 55.4 °F 94% 30.12 in 10.0 mi Calm Calm - N/A   Scattered Clouds
10:54 PM 57.0 °F - 55.9 °F 96% 30.12 in 10.0 mi Calm Calm - N/A   Scattered Clouds
11:54 PM 55.0 °F - 54.0 °F 96% 30.10 in 10.0 mi North 3.5 mph - N/A   Clear